Location: Unspecified
(48.5910°N, 12.0210°E)
Time: 14:48:19
(UTC+00:00)

Daily predictions for brighter satellites

Satellite Brightness Start Highest point End
(mag) Time Altitude Azimuth Time Altitude Azimuth Time Altitude Azimuth
Unknown 4.3 16:35:50 10° W 16:39:51 47° N 16:43:52 10° ENE
SMAP 3.3 16:37:27 10° S 16:42:06 78° WSW 16:46:47 10° NNW
Unknown 4.3 16:42:34 10° W 16:46:35 46° N 16:50:35 10° ENE
Meteor 1-16 Rocket 4.1 16:41:27 10° S 16:46:54 71° E 16:52:15 10° NNE
Cosmos 1461 2.8 16:43:30 10° NW 16:47:35 72° NE 16:51:47 10° SE
Unknown 3.2 16:44:37 10° WNW 16:48:09 77° NNE 16:51:40 10° ESE
Cosmos 2278 Rocket 2.5 16:42:48 10° S 16:48:13 47° ESE 16:53:37 10° NE
Unknown 4.3 16:44:16 10° W 16:48:16 45° N 16:52:16 10° ENE
Cosmos 1908 3.7 16:45:27 10° SSE 16:49:05 40° E 16:52:44 10° NNE
Unknown 4.3 16:45:55 10° W 16:49:55 45° N 16:53:55 10° ENE
CZ-4 R/B 1.9 16:46:47 10° SE 16:50:43 39° ENE 16:54:41 10° N
Unknown 4.3 16:47:34 10° W 16:51:34 45° N 16:55:34 10° ENE
Gbstr 26 Del rocket 4.1 16:46:12 10° WNW 16:51:55 79° SSW 16:59:00 10° ESE
Abrixas rocket 2.4 16:49:25 10° WSW 16:52:25 53° SSE 16:55:13 11° E
Unknown 4.3 16:49:13 10° WNW 16:53:13 45° N 16:57:09 10° ENE
ATLAS CENTAUR R/B 3.8 16:51:53 10° NNW 16:53:34 12° N 16:55:14 10° NNE
Meteor 2-10 3.9 16:49:57 10° S 16:54:57 65° E 16:59:57 10° NNE
NOSS 3-2 (A) 4.1 16:50:44 10° S 16:55:45 32° ESE 17:01:19 10° NE
Cosmos 1844 4.4 16:50:25 10° SW 16:56:04 58° WNW 17:01:48 10° NNE
Unknown 4.3 16:52:35 10° WNW 16:56:35 45° N 17:00:22 11° ENE
Starlink (trailer) 4.3 16:54:14 10° WNW 16:58:14 45° N 17:01:56 12° ENE
CSL-04 Rocket 4.0 16:53:16 10° SE 16:58:30 46° ENE 17:03:42 10° N
EO 1 Delta rocket 4.4 16:55:06 10° SE 16:59:27 40° ENE 17:04:22 10° N
Unknown 4.3 16:55:57 10° WNW 16:59:56 44° N 17:03:34 12° ENE
Meteor 1-11 4.3 16:54:23 10° N 17:00:12 74° ENE 17:06:00 10° SSE
FengYun 1-2 T 4.3 16:55:32 10° SSE 17:01:03 61° ENE 17:06:34 10° N
Cosmos 2058 Rocket 3.0 16:57:10 10° S 17:01:31 86° ESE 17:05:54 10° N
Unknown 4.3 16:57:37 10° WNW 17:01:36 44° N 17:05:10 13° ENE
SJ 16-02 3.0 16:59:28 10° NNE 17:02:11 16° NE 17:04:00 13° ENE
Cosmos 2084 Rocket 3.7 16:59:08 10° NW 17:03:31 53° NE 17:07:48 10° ESE
Ariane Rocket 3.9 17:02:06 10° ESE 17:06:21 28° ENE 17:10:38 10° N
Unknown 4.3 17:02:39 10° WNW 17:06:39 44° N 17:09:59 14° ENE
Cosmos 1953 4.1 17:03:05 10° SW 17:06:51 35° WNW 17:10:38 10° N
YAOGAN 6 2.7 17:03:46 10° SSE 17:07:18 52° ENE 17:10:50 10° N
Unknown 4.3 17:04:17 10° WNW 17:08:17 44° N 17:11:32 14° ENE
Unknown 4.3 17:06:01 10° WNW 17:10:00 44° N 17:13:11 15° ENE
Unknown 4.3 17:07:35 10° WNW 17:11:36 44° N 17:14:45 15° ENE
Unknown 3.8 17:08:53 10° WNW 17:12:38 49° NNE 17:15:18 18° E
Unknown 4.3 17:09:19 10° WNW 17:13:18 44° N 17:16:20 16° ENE
COSMO-SKYMED 1 2.6 17:09:17 10° NNE 17:13:35 57° E 17:17:51 10° S
Unknown 4.3 17:11:06 10° WNW 17:15:05 44° N 17:18:02 17° ENE
Cosmos 1833 Rocket 2.7 17:11:43 10° NNW 17:17:22 85° WSW 17:22:59 10° SSE
Unknown 4.3 17:14:26 10° WNW 17:18:26 44° N 17:21:14 18° ENE
Cosmos 1937 Rocket 4.5 17:15:03 10° N 17:19:22 26° NE 17:22:02 17° E
Unknown 4.3 17:15:59 10° WNW 17:19:58 44° N 17:22:43 18° ENE
Cosmos 1339 Rocket 4.4 17:14:58 10° S 17:21:02 73° E 17:27:13 10° NNE
Cosmos 1459 Rocket 4.5 17:16:19 10° N 17:22:06 38° ENE 17:27:56 10° SE
NOSS 3-2 (C) 4.1 17:17:08 10° S 17:22:10 32° ESE 17:27:00 13° ENE
ASTEX 1 3.4 17:17:51 10° N 17:22:50 87° W 17:27:49 10° S
Unknown 4.3 17:19:15 10° WNW 17:23:14 44° N 17:25:50 19° ENE
BREEZE-M DEB (TANK) 3.9 17:14:34 10° SW 17:25:43 44° SSE 17:28:14 21° E
Unknown 4.3 17:22:40 10° WNW 17:26:40 44° N 17:29:07 21° ENE
Okean-O 4.1 17:23:29 10° S 17:27:40 41° W 17:31:54 10° NNW
Unknown 4.3 17:24:21 10° WNW 17:28:21 45° N 17:30:43 22° ENE
Unknown 4.3 17:26:01 10° WNW 17:30:01 45° N 17:32:19 22° ENE
Unknown 4.2 17:27:43 10° WNW 17:31:43 45° N 17:33:56 23° ENE
Lacrosse 5 2.2 17:26:51 10° WNW 17:31:53 67° SW 17:36:53 10° SE
Unknown 4.1 17:30:33 10° WNW 17:33:48 43° SW 17:36:20 15° SSE
Cosmos 1076 Rocket 3.5 17:30:15 10° N 17:34:35 58° ENE 17:38:51 10° SSE
Cosmos 1605 Rocket 4.2 17:28:44 10° NNW 17:34:55 75° W 17:41:00 10° S
Unknown 4.2 17:31:03 10° WNW 17:35:03 45° N 17:37:08 25° ENE
Unknown 4.2 17:32:46 10° WNW 17:36:47 46° N 17:38:47 26° ENE
Cosmos 2058 3.2 17:32:52 10° N 17:36:56 45° ENE 17:40:58 10° SSE
Cosmos 1300 2.9 17:34:11 10° SSE 17:37:50 46° E 17:41:31 10° NNE
Unknown 3.7 17:34:07 10° WNW 17:37:57 55° NNE 17:39:36 30° E
Unknown 4.2 17:34:22 10° WNW 17:38:22 45° N 17:40:17 26° ENE
Unknown 4.2 17:35:58 10° WNW 17:39:59 46° N 17:41:50 27° ENE
Unknown 4.2 17:37:42 10° WNW 17:41:43 46° N 17:43:30 28° ENE
Okean 3 Rocket 4.2 17:38:27 10° N 17:42:39 35° ENE 17:44:13 27° ESE
Unknown 4.2 17:39:11 10° WNW 17:43:12 45° N 17:44:55 28° ENE
Cosmos 1763 Rocket 4.4 17:40:49 10° SSE 17:45:07 27° E 17:45:07 27° E
Unknown 4.2 17:42:30 10° WNW 17:46:31 46° N 17:48:05 30° ENE
FALCON 9 DEB 4.2 17:43:15 10° WNW 17:46:33 41° SW 17:48:30 20° SSE
CZ-2D R/B 3.1 17:43:17 10° SSE 17:47:07 67° ENE 17:50:59 10° N
ATLAS 3B R/B 3.2 17:41:18 10° S 17:47:15 35° ESE 17:50:13 24° ENE
Unknown 4.2 17:44:10 10° WNW 17:48:11 46° N 17:49:41 31° ENE
CSL-04 Debris 4.4 17:42:44 10° S 17:48:11 75° WSW 17:53:43 10° NNW
SL-27 R/B 4.3 17:46:18 10° N 17:47:30 16° NNE 17:47:30 16° NNE
Cosmos 1727 Rocket 3.9 17:43:36 10° S 17:49:45 82° E 17:55:58 10° N
Unknown 4.1 17:46:03 10° WNW 17:50:05 47° N 17:51:29 33° ENE
Cosmos 2082 Rocket 2.5 17:44:44 10° NNW 17:50:26 70° WSW 17:56:04 10° SSE
Unknown 4.2 17:47:32 10° WNW 17:51:34 47° N 17:52:55 33° ENE
Cosmos 2173 Rocket 4.0 17:45:36 10° N 17:51:49 61° ENE 17:57:53 10° SSE
Cosmos 1812 Rocket 3.5 17:47:48 10° S 17:52:14 87° E 17:56:45 10° N
Cosmos 1939 Rocket 2.7 17:48:36 10° SSE 17:52:36 70° ENE 17:56:41 10° N
IRS-1A Rocket 4.2 17:47:40 10° SE 17:53:02 58° ENE 17:58:28 10° N
Unknown 4.2 17:49:11 10° WNW 17:53:12 47° N 17:54:29 35° NE
Cosmos 2151 3.6 17:49:21 10° N 17:53:14 35° ENE 17:53:14 35° ENE
CENTAUR R/B 2.9 17:48:29 10° S 17:53:56 39° ESE 17:56:59 25° ENE
Unknown 3.9 17:51:45 10° WNW 17:55:43 52° NNE 17:56:45 40° ENE
SPOT 3 Rocket 4.3 17:55:59 30° ENE 17:56:23 31° ENE 18:00:54 10° N
Unknown 4.1 17:52:32 10° WNW 17:56:35 48° N 17:57:42 37° NE
Unknown 4.1 17:54:09 10° WNW 17:58:11 48° N 17:59:15 38° NE
BREEZE-M DEB (TANK) 2.4 17:56:06 10° WSW 17:59:43 51° S 17:59:43 51° S
Unknown 4.1 17:55:51 10° WNW 17:59:53 48° N 18:00:52 39° NE
Unknown 4.1 17:57:32 10° WNW 18:01:35 49° N 18:02:29 40° NE
YAOGAN 1 3.5 17:58:30 10° S 18:02:42 50° W 18:06:57 10° NNW
Cosmos 1802 Rocket 4.0 17:56:55 10° N 18:03:19 62° ENE 18:09:37 10° SSE
Unknown 4.4 18:00:37 10° WNW 18:03:52 36° SW 18:05:02 27° S
Unknown 4.0 18:00:54 10° WNW 18:04:57 49° N 18:05:42 43° NE
Unknown 3.9 18:01:22 10° WNW 18:05:23 51° NNE 18:06:04 45° NE
Unknown 4.0 18:01:52 10° WNW 18:05:55 50° N 18:06:38 44° NE
Unknown 3.9 18:02:39 10° WNW 18:06:43 52° NNE 18:07:23 46° NE
Cosmos 2123 Rocket 4.4 18:01:00 10° SSE 18:06:44 38° E 18:12:27 10° NNE
Cosmos 44 3.2 18:02:13 10° SSW 18:07:05 60° ESE 18:08:22 43° ENE
Unknown 3.9 18:04:26 10° WNW 18:08:30 52° NNE 18:09:06 47° NE
Unknown 3.9 18:07:34 10° WNW 18:11:38 51° NNE 18:12:06 48° NE
Cosmos 1898 Rocket 3.4 18:06:22 10° NNW 18:11:41 82° ENE 18:14:40 27° SSE
H-2A R/B 2.7 18:11:50 36° ENE 18:11:50 36° ENE 18:16:42 10° N
Unknown 3.3 18:08:58 10° WNW 18:12:43 73° SSW 18:12:58 69° S
In-Cosmos 22 Rocket 4.0 18:07:37 10° N 18:13:04 84° ENE 18:18:38 10° SSE
Cosmos 1000 Rocket 4.4 18:07:23 10° S 18:13:31 69° E 18:19:45 10° NNE
BREEZE M DEB (TANK) 4.1 18:12:19 10° W 18:14:54 28° SSW 18:17:55 18° SSE
Unknown 3.9 18:10:54 10° WNW 18:14:57 52° NNE 18:15:17 51° NNE
Cosmos 1725 Rocket 4.1 18:09:10 10° N 18:15:18 52° ENE 18:17:33 36° SE
Unknown 3.9 18:12:31 10° WNW 18:16:36 53° NNE 18:16:51 52° NNE
ATLAS 5 CENTAUR R/B 4.1 18:14:13 10° NW 18:17:24 17° N 18:20:26 11° NNE
Meteor 2-1 Rocket 4.0 18:12:23 10° S 18:17:54 78° E 18:23:31 10° NNE
Unknown 3.9 18:14:13 10° WNW 18:18:17 53° NNE 18:18:28 53° NNE
Unknown 3.9 18:15:50 10° WNW 18:19:55 54° NNE 18:20:02 54° NNE
Cosmos 2100 Rocket 4.0 18:14:43 10° N 18:20:56 80° W 18:27:04 10° S
USA 238 DEB 3.9 18:16:56 10° SW 18:23:40 72° NW 18:29:24 16° NE
USA 238 3.8 18:17:03 10° SW 18:23:46 72° NW 18:29:28 16° NE
CZ-4 R/B 3.9 18:22:30 10° SSW 18:25:52 23° W 18:29:17 10° NW
Unknown 3.9 18:22:31 10° WNW 18:26:27 56° N 18:26:27 56° N
Abrixas rocket 3.7 18:25:09 10° W 18:27:03 34° W 18:27:03 34° W
Unknown 3.9 18:24:13 10° WNW 18:28:04 56° N 18:28:04 56° N
Unknown 4.0 18:25:51 10° WNW 18:29:39 56° N 18:29:39 56° N
Unknown 4.0 18:27:30 10° WNW 18:31:13 55° N 18:31:13 55° N
Cosmos 2278 Rocket 3.7 18:27:15 10° WSW 18:32:27 35° NW 18:37:41 10° NNE
Unknown 4.0 18:29:09 10° WNW 18:32:48 55° NNW 18:32:48 55° NNW
ATLAS CENTAUR R/B 3.2 18:30:20 10° NNW 18:33:06 23° N 18:33:06 23° N
Unknown 4.1 18:32:29 10° WNW 18:36:01 53° NNW 18:36:01 53° NNW
Cosmos 2016 Rocket 3.9 18:30:34 10° N 18:36:54 88° ENE 18:41:17 22° S
Cosmos 2297 3.7 18:31:26 10° SSW 18:37:09 82° WNW 18:41:31 18° NNE
Starlink (trailer) 4.2 18:34:08 10° WNW 18:37:35 52° NNW 18:37:35 52° NNW
Unknown 4.2 18:35:51 10° WNW 18:39:13 51° NNW 18:39:13 51° NNW
SJ 16-02 1.4 18:36:56 10° NNW 18:41:02 72° WNW 18:41:02 72° WNW
Unknown 4.3 18:37:30 10° WNW 18:40:49 50° NNW 18:40:49 50° NNW
Ariane Rocket 3.9 18:40:10 10° S 18:45:04 48° W 18:50:02 10° NNW
ARGOS 3.4 18:46:31 54° NNE 18:46:31 54° NNE 18:51:03 10° N
SL-08 R/B 4.3 18:39:35 10° N 18:45:45 87° E 18:47:43 46° SSE
NOSS 3-2 (A) 3.9 18:40:18 10° WSW 18:46:09 61° NW 18:50:14 24° NNE
Unknown 4.5 18:42:31 10° WNW 18:45:38 47° NW 18:45:38 47° NW
Cosmos 468 Rocket 4.1 18:45:01 10° SSW 18:50:18 75° WNW 18:52:10 41° N
Cosmos 1892 4.4 18:50:06 10° NNW 18:52:13 29° NW 18:52:13 29° NW
ADEOS Rocket 3.3 18:53:41 10° NNE 19:01:22 71° ESE 19:03:33 48° SSE
Cosmos 1937 Rocket 4.0 18:56:38 10° NNW 19:01:39 53° WSW 19:02:15 50° SW
CZ-2C R/B 4.0 19:13:11 45° N 19:13:11 45° N 19:17:08 10° N
NOSS 3-2 (C) 3.8 19:06:45 10° WSW 19:12:37 61° NW 19:14:29 44° NNE
Lacrosse 5 4.4 19:11:27 10° W 19:14:01 14° WSW 19:16:09 11° SSW
Cosmos 1238 Rocket 4.3 19:08:51 10° N 19:14:03 55° N 19:14:03 55° N
Resurs 01 Rocket 4.2 19:29:47 14° N 19:29:47 14° N 19:30:24 10° N
Cosmos 2297 Rocket 4.5 19:32:01 10° N 19:33:19 13° N 19:33:19 13° N
ATLAS 3B R/B 2.9 19:30:58 10° SW 19:37:32 62° NW 19:37:32 62° NW
CENTAUR R/B 3.1 19:38:15 10° WSW 19:44:14 57° NW 19:44:14 57° NW
H-2A R/B 3.6 19:52:28 33° WNW 19:52:28 33° WNW 19:56:13 10° NNW
ATLAS 5 CENTAUR R/B 4.5 20:00:22 10° NNW 20:01:57 15° NNW 20:01:57 15° NNW
